Location: Most
(50.5133°N, 13.6207°E)
Time: 09:31:29
(UTC+01:00)

SEEDS - Pass Details

Date: 29 November 2021
Orbit: 584 x 600 km, 97.6° (Epoch: 22 January)

Event Time Altitude Azimuth Distance (km) Brightness Sun altitude
Rises 17:06:03 0° 217° (SW) 2,829 ? -9.3°
Reaches altitude 10° 17:09:24 10° 246° (WSW) 1,930 ? -9.8°
Maximum altitude 17:11:16 13° 273° (W) 1,760 ? -10.0°
Drops below altitude 10° 17:13:08 10° 300° (WNW) 1,932 ? -10.3°
Sets 17:16:31 0° 329° (NNW) 2,836 ? -10.8°
